Location: Archemont
(49.1579°N, 1.7598°E)
Time: 10:30:35
(UTC+00:00)

Altair - Pass Details

Date: 17 April 2024
Orbit: 1501 x 1682 km, 47.2° (Epoch: 17 May)

Event Time Altitude Azimuth Distance (km) Brightness Sun altitude
Rises 20:43:37 0° 246° (WSW) 4,900 10.5 -17.1°
Reaches altitude 10° 20:46:49 10° 244° (WSW) 3,897 9.9 -17.5°
Maximum altitude 20:56:42 71° 163° (SSE) 1,687 7.5 -18.6°
Drops below altitude 10° 21:06:13 10° 82° (E) 3,764 9.2 -19.7°
Sets 21:09:14 0° 80° (E) 4,725 9.7 -20.1°
